Year,Month,Day,Hour,Minute,Value (Times are PST for temperature in C)
2017,10,27,00,00,5.30
2017,10,27,00,01,5.30
2017,10,27,00,02,5.30
2017,10,27,00,03,5.30
2017,10,27,00,04,5.30
2017,10,27,00,05,5.30
2017,10,27,00,06,5.30
2017,10,27,00,07,5.30
2017,10,27,00,08,5.30
2017,10,27,00,09,5.30
2017,10,27,00,10,5.30
2017,10,27,00,11,5.30
2017,10,27,00,12,5.30
2017,10,27,00,13,5.20
2017,10,27,00,14,5.20
2017,10,27,00,15,5.20
2017,10,27,00,16,5.20
2017,10,27,00,17,5.20
2017,10,27,00,18,5.20
2017,10,27,00,19,5.20
2017,10,27,00,20,5.20
2017,10,27,00,21,5.20
2017,10,27,00,22,5.20
2017,10,27,00,23,5.20
2017,10,27,00,24,5.20
2017,10,27,00,25,5.20
2017,10,27,00,26,5.20
2017,10,27,00,27,5.20
2017,10,27,00,28,5.20
2017,10,27,00,29,5.10
2017,10,27,00,30,5.10
2017,10,27,00,31,5.10
2017,10,27,00,32,5.10
2017,10,27,00,33,5.10
2017,10,27,00,34,5.10
2017,10,27,00,35,5.00
2017,10,27,00,36,5.00
2017,10,27,00,37,5.00
2017,10,27,00,38,4.90
2017,10,27,00,39,4.90
2017,10,27,00,40,4.90
2017,10,27,00,41,4.90
2017,10,27,00,42,4.90
2017,10,27,00,43,4.90
2017,10,27,00,44,4.90
2017,10,27,00,45,4.90
2017,10,27,00,46,4.90
2017,10,27,00,47,4.80
2017,10,27,00,48,4.80
2017,10,27,00,49,4.80
2017,10,27,00,50,4.80
2017,10,27,00,51,4.80
2017,10,27,00,52,4.80
2017,10,27,00,53,4.80
2017,10,27,00,54,4.80
2017,10,27,00,55,4.80
2017,10,27,00,56,4.90
2017,10,27,00,57,4.90
2017,10,27,00,58,4.90
2017,10,27,00,59,4.90
2017,10,27,01,00,4.90
2017,10,27,01,01,4.90
2017,10,27,01,02,4.90
2017,10,27,01,03,4.80
2017,10,27,01,04,4.80
2017,10,27,01,05,4.80
2017,10,27,01,06,4.80
2017,10,27,01,07,4.80
2017,10,27,01,08,4.80
2017,10,27,01,09,4.80
2017,10,27,01,10,4.80
2017,10,27,01,11,4.80
2017,10,27,01,12,4.80
2017,10,27,01,13,4.80
2017,10,27,01,14,4.70
2017,10,27,01,15,4.70
2017,10,27,01,16,4.70
2017,10,27,01,17,4.70
2017,10,27,01,18,4.70
2017,10,27,01,19,4.70
2017,10,27,01,20,4.70
2017,10,27,01,21,4.70
2017,10,27,01,22,4.60
2017,10,27,01,23,4.60
2017,10,27,01,24,4.60
2017,10,27,01,25,4.60
2017,10,27,01,26,4.60
2017,10,27,01,27,4.60
2017,10,27,01,28,4.60
2017,10,27,01,29,4.60
2017,10,27,01,30,4.60
2017,10,27,01,31,4.60
2017,10,27,01,32,4.60
2017,10,27,01,33,4.60
2017,10,27,01,34,4.60
2017,10,27,01,35,4.70
2017,10,27,01,36,4.70
2017,10,27,01,37,4.70
2017,10,27,01,38,4.70
2017,10,27,01,39,4.70
2017,10,27,01,40,4.70
2017,10,27,01,41,4.70
2017,10,27,01,42,4.80
2017,10,27,01,43,4.80
2017,10,27,01,44,4.80
2017,10,27,01,45,4.80
2017,10,27,01,46,4.80
2017,10,27,01,47,4.80
2017,10,27,01,48,4.80
2017,10,27,01,49,4.80
2017,10,27,01,50,4.80
2017,10,27,01,51,4.80
2017,10,27,01,52,4.70
2017,10,27,01,53,4.70
2017,10,27,01,54,4.70
2017,10,27,01,55,4.70
2017,10,27,01,56,4.70
2017,10,27,01,57,4.70
2017,10,27,01,58,4.70
2017,10,27,01,59,4.60
2017,10,27,02,00,4.60
2017,10,27,02,01,4.60
2017,10,27,02,02,4.70
2017,10,27,02,03,4.70
2017,10,27,02,04,4.70
2017,10,27,02,05,4.70
2017,10,27,02,06,4.70
2017,10,27,02,07,4.70
2017,10,27,02,08,4.70
2017,10,27,02,09,4.70
2017,10,27,02,10,4.70
2017,10,27,02,11,4.80
2017,10,27,02,12,4.80
2017,10,27,02,13,4.80
2017,10,27,02,14,4.80
2017,10,27,02,15,4.80
2017,10,27,02,16,4.80
2017,10,27,02,17,4.80
2017,10,27,02,18,4.90
2017,10,27,02,19,4.90
2017,10,27,02,20,4.90
2017,10,27,02,21,4.90
2017,10,27,02,22,4.90
2017,10,27,02,23,4.90
2017,10,27,02,24,5.00
2017,10,27,02,25,5.00
2017,10,27,02,26,5.00
2017,10,27,02,27,5.00
2017,10,27,02,28,5.10
2017,10,27,02,29,5.10
2017,10,27,02,30,5.10
2017,10,27,02,31,5.10
2017,10,27,02,32,5.20
2017,10,27,02,33,5.20
2017,10,27,02,34,5.20
2017,10,27,02,35,5.10
2017,10,27,02,36,5.00
2017,10,27,02,37,4.90
2017,10,27,02,38,4.80
2017,10,27,02,39,4.70
2017,10,27,02,40,4.70
2017,10,27,02,41,4.70
2017,10,27,02,42,4.70
2017,10,27,02,43,4.70
2017,10,27,02,44,4.70
2017,10,27,02,45,4.80
2017,10,27,02,46,4.80
2017,10,27,02,47,4.80
2017,10,27,02,48,4.80
2017,10,27,02,49,4.80
2017,10,27,02,50,4.80
2017,10,27,02,51,4.80
2017,10,27,02,52,4.70
2017,10,27,02,53,4.70
2017,10,27,02,54,4.70
2017,10,27,02,55,4.70
2017,10,27,02,56,4.70
2017,10,27,02,57,4.70
2017,10,27,02,58,4.70
2017,10,27,02,59,4.70
2017,10,27,03,00,4.70
2017,10,27,03,01,4.70
2017,10,27,03,02,4.70
2017,10,27,03,03,4.70
2017,10,27,03,04,4.70
2017,10,27,03,05,4.70
2017,10,27,03,06,4.60
2017,10,27,03,07,4.60
2017,10,27,03,08,4.60
2017,10,27,03,09,4.60
2017,10,27,03,10,4.60
2017,10,27,03,11,4.70
2017,10,27,03,12,4.70
2017,10,27,03,13,4.70
2017,10,27,03,14,4.70
2017,10,27,03,15,4.70
2017,10,27,03,16,4.80
2017,10,27,03,17,4.70
2017,10,27,03,18,4.70
2017,10,27,03,19,4.70
2017,10,27,03,20,4.60
2017,10,27,03,21,4.60
2017,10,27,03,22,4.50
2017,10,27,03,23,4.50
2017,10,27,03,24,4.40
2017,10,27,03,25,4.40
2017,10,27,03,26,4.30
2017,10,27,03,27,4.30
2017,10,27,03,28,4.30
2017,10,27,03,29,4.40
2017,10,27,03,30,4.40
2017,10,27,03,31,4.40
2017,10,27,03,32,4.40
2017,10,27,03,33,4.40
2017,10,27,03,34,4.40
2017,10,27,03,35,4.40
2017,10,27,03,36,4.40
2017,10,27,03,37,4.40
2017,10,27,03,38,4.30
2017,10,27,03,39,4.30
2017,10,27,03,40,4.30
2017,10,27,03,41,4.30
2017,10,27,03,42,4.30
2017,10,27,03,43,4.30
2017,10,27,03,44,4.40
2017,10,27,03,45,4.40
2017,10,27,03,46,4.40
2017,10,27,03,47,4.40
2017,10,27,03,48,4.40
2017,10,27,03,49,4.40
2017,10,27,03,50,4.40
2017,10,27,03,51,4.40
2017,10,27,03,52,4.40
2017,10,27,03,53,4.40
2017,10,27,03,54,4.40
2017,10,27,03,55,4.40
2017,10,27,03,56,4.30
2017,10,27,03,57,4.30
2017,10,27,03,58,4.30
2017,10,27,03,59,4.30
2017,10,27,04,00,4.20
2017,10,27,04,01,4.20
2017,10,27,04,02,4.10
2017,10,27,04,03,4.10
2017,10,27,04,04,4.10
2017,10,27,04,05,4.10
2017,10,27,04,06,4.10
2017,10,27,04,07,4.10
2017,10,27,04,08,4.10
2017,10,27,04,09,4.10
2017,10,27,04,10,4.10
2017,10,27,04,11,4.10
2017,10,27,04,12,4.10
2017,10,27,04,13,4.10
2017,10,27,04,14,4.10
2017,10,27,04,15,4.10
2017,10,27,04,16,4.10
2017,10,27,04,17,4.10
2017,10,27,04,18,4.10
2017,10,27,04,19,4.10
2017,10,27,04,20,4.10
2017,10,27,04,21,4.10
2017,10,27,04,22,4.10
2017,10,27,04,23,4.10
2017,10,27,04,24,4.10
2017,10,27,04,25,4.10
2017,10,27,04,26,4.10
2017,10,27,04,27,4.10
2017,10,27,04,28,4.20
2017,10,27,04,29,4.30
2017,10,27,04,30,4.40
2017,10,27,04,31,4.40
2017,10,27,04,32,4.50
2017,10,27,04,33,4.60
2017,10,27,04,34,4.70
2017,10,27,04,35,4.80
2017,10,27,04,36,4.90
2017,10,27,04,37,4.90
2017,10,27,04,38,5.00
2017,10,27,04,39,5.00
2017,10,27,04,40,5.10
2017,10,27,04,41,5.10
2017,10,27,04,42,5.10
2017,10,27,04,43,5.10
2017,10,27,04,44,5.10
2017,10,27,04,45,5.10
2017,10,27,04,46,5.20
2017,10,27,04,47,5.30
2017,10,27,04,48,5.40
2017,10,27,04,49,5.50
2017,10,27,04,50,5.60
2017,10,27,04,51,5.70
2017,10,27,04,52,5.70
2017,10,27,04,53,5.70
2017,10,27,04,54,5.80
2017,10,27,04,55,5.90
2017,10,27,04,56,6.00
2017,10,27,04,57,6.10
2017,10,27,04,58,6.10
2017,10,27,04,59,6.10
2017,10,27,05,00,6.10
2017,10,27,05,01,6.20
2017,10,27,05,02,6.40
2017,10,27,05,03,6.50
2017,10,27,05,04,6.60
2017,10,27,05,05,6.60
2017,10,27,05,06,6.60
2017,10,27,05,07,6.60
2017,10,27,05,08,6.50
2017,10,27,05,09,6.50
2017,10,27,05,10,6.40
2017,10,27,05,11,6.30
2017,10,27,05,12,6.30
2017,10,27,05,13,6.30
2017,10,27,05,14,6.30
2017,10,27,05,15,6.30
2017,10,27,05,16,6.30
2017,10,27,05,17,6.30
2017,10,27,05,18,6.30
2017,10,27,05,19,6.30
2017,10,27,05,20,6.40
2017,10,27,05,21,6.40
2017,10,27,05,22,6.40
2017,10,27,05,23,6.50
2017,10,27,05,24,6.50
2017,10,27,05,25,6.50
2017,10,27,05,26,6.50
2017,10,27,05,27,6.50
2017,10,27,05,28,6.40
2017,10,27,05,29,6.40
2017,10,27,05,30,6.40
2017,10,27,05,31,6.40
2017,10,27,05,32,6.40
2017,10,27,05,33,6.50
2017,10,27,05,34,6.50
2017,10,27,05,35,6.50
2017,10,27,05,36,6.50
2017,10,27,05,37,6.40
2017,10,27,05,38,6.40
2017,10,27,05,39,6.40
2017,10,27,05,40,6.40
2017,10,27,05,41,6.40
2017,10,27,05,42,6.40
2017,10,27,05,43,6.40
2017,10,27,05,44,6.40
2017,10,27,05,45,6.40
2017,10,27,05,46,6.30
2017,10,27,05,47,6.30
2017,10,27,05,48,6.20
2017,10,27,05,49,6.20
2017,10,27,05,50,6.20
2017,10,27,05,51,6.20
2017,10,27,05,52,6.10
2017,10,27,05,53,6.00
2017,10,27,05,54,5.90
2017,10,27,05,55,5.90
2017,10,27,05,56,5.80
2017,10,27,05,57,5.80
2017,10,27,05,58,5.80
2017,10,27,05,59,5.80
2017,10,27,06,00,5.80
2017,10,27,06,01,5.70
2017,10,27,06,02,5.70
2017,10,27,06,03,5.60
2017,10,27,06,04,5.50
2017,10,27,06,05,5.40
2017,10,27,06,06,5.40
2017,10,27,06,07,5.40
2017,10,27,06,08,5.40
2017,10,27,06,09,5.40
2017,10,27,06,10,5.40
2017,10,27,06,11,5.40
2017,10,27,06,12,5.40
2017,10,27,06,13,5.40
2017,10,27,06,14,5.30
2017,10,27,06,15,5.20
2017,10,27,06,16,5.20
2017,10,27,06,17,5.30
2017,10,27,06,18,5.30
2017,10,27,06,19,5.30
2017,10,27,06,20,5.40
2017,10,27,06,21,5.50
2017,10,27,06,22,5.50
2017,10,27,06,23,5.60
2017,10,27,06,24,5.60
2017,10,27,06,25,5.70
2017,10,27,06,26,5.70
2017,10,27,06,27,5.70
2017,10,27,06,28,5.70
2017,10,27,06,29,5.70
2017,10,27,06,30,5.70
2017,10,27,06,31,5.60
2017,10,27,06,32,5.50
2017,10,27,06,33,5.50
2017,10,27,06,34,5.40
2017,10,27,06,35,5.30
2017,10,27,06,36,5.30
2017,10,27,06,37,5.20
2017,10,27,06,38,5.20
2017,10,27,06,39,5.20
2017,10,27,06,40,5.10
2017,10,27,06,41,5.10
2017,10,27,06,42,5.10
2017,10,27,06,43,5.00
2017,10,27,06,44,5.00
2017,10,27,06,45,4.90
2017,10,27,06,46,4.80
2017,10,27,06,47,4.80
2017,10,27,06,48,4.80
2017,10,27,06,49,4.80
2017,10,27,06,50,4.80
2017,10,27,06,51,4.80
2017,10,27,06,52,4.80
2017,10,27,06,53,4.80
2017,10,27,06,54,4.80
2017,10,27,06,55,4.80
2017,10,27,06,56,4.90
2017,10,27,06,57,4.90
2017,10,27,06,58,4.90
2017,10,27,06,59,4.90
2017,10,27,07,00,4.90
2017,10,27,07,01,4.90
2017,10,27,07,02,4.80
2017,10,27,07,03,4.80
2017,10,27,07,04,4.70
2017,10,27,07,05,4.70
2017,10,27,07,06,4.60
2017,10,27,07,07,4.50
2017,10,27,07,08,4.50
2017,10,27,07,09,4.40
2017,10,27,07,10,4.30
2017,10,27,07,11,4.30
2017,10,27,07,12,4.30
2017,10,27,07,13,4.30
2017,10,27,07,14,4.20
2017,10,27,07,15,4.20
2017,10,27,07,16,4.30
2017,10,27,07,17,4.30
2017,10,27,07,18,4.30
2017,10,27,07,19,4.30
2017,10,27,07,20,4.30
2017,10,27,07,21,4.30
2017,10,27,07,22,4.30
2017,10,27,07,23,4.30
2017,10,27,07,24,4.30
2017,10,27,07,25,4.30
2017,10,27,07,26,4.30
2017,10,27,07,27,4.40
2017,10,27,07,28,4.40
2017,10,27,07,29,4.40
2017,10,27,07,30,4.40
2017,10,27,07,31,4.40
2017,10,27,07,32,4.40
2017,10,27,07,33,4.40
2017,10,27,07,34,4.50
2017,10,27,07,35,4.50
2017,10,27,07,36,4.60
2017,10,27,07,37,4.60
2017,10,27,07,38,4.60
2017,10,27,07,39,4.50
2017,10,27,07,40,4.50
2017,10,27,07,41,4.50
2017,10,27,07,42,4.50
2017,10,27,07,43,4.50
2017,10,27,07,44,4.50
2017,10,27,07,45,4.50
2017,10,27,07,46,4.40
2017,10,27,07,47,4.40
2017,10,27,07,48,4.40
2017,10,27,07,49,4.40
2017,10,27,07,50,4.40
2017,10,27,07,51,4.40
2017,10,27,07,52,4.40
2017,10,27,07,53,4.30
2017,10,27,07,54,4.30
2017,10,27,07,55,4.30
2017,10,27,07,56,4.30
2017,10,27,07,57,4.30
2017,10,27,07,58,4.30
2017,10,27,07,59,4.40
2017,10,27,08,00,4.30
2017,10,27,08,01,4.30
2017,10,27,08,02,4.30
2017,10,27,08,03,4.20
2017,10,27,08,04,4.20
2017,10,27,08,05,4.20
2017,10,27,08,06,4.30
2017,10,27,08,07,4.30
2017,10,27,08,08,4.30
2017,10,27,08,09,4.30
2017,10,27,08,10,4.20
2017,10,27,08,11,4.20
2017,10,27,08,12,4.20
2017,10,27,08,13,4.30
2017,10,27,08,14,4.30
2017,10,27,08,15,4.20
2017,10,27,08,16,4.20
2017,10,27,08,17,4.20
2017,10,27,08,18,4.20
2017,10,27,08,19,4.20
2017,10,27,08,20,4.20
2017,10,27,08,21,4.30
2017,10,27,08,22,4.30
2017,10,27,08,23,4.30
2017,10,27,08,24,4.30
2017,10,27,08,25,4.30
2017,10,27,08,26,4.40
2017,10,27,08,27,4.40
2017,10,27,08,28,4.50
2017,10,27,08,29,4.50
2017,10,27,08,30,4.50
2017,10,27,08,31,4.50
2017,10,27,08,32,4.50
2017,10,27,08,33,4.50
2017,10,27,08,34,4.50
2017,10,27,08,35,4.50
2017,10,27,08,36,4.50
2017,10,27,08,37,4.50
2017,10,27,08,38,4.50
2017,10,27,08,39,4.50
2017,10,27,08,40,4.60
2017,10,27,08,41,4.60
2017,10,27,08,42,4.70
2017,10,27,08,43,4.70
2017,10,27,08,44,4.70
2017,10,27,08,45,4.80
2017,10,27,08,46,4.80
2017,10,27,08,47,4.90
2017,10,27,08,48,5.00
2017,10,27,08,49,5.10
2017,10,27,08,50,5.10
2017,10,27,08,51,5.10
2017,10,27,08,52,5.20
2017,10,27,08,53,5.20
2017,10,27,08,54,5.30
2017,10,27,08,55,5.30
2017,10,27,08,56,5.40
2017,10,27,08,57,5.50
2017,10,27,08,58,5.50
2017,10,27,08,59,5.60
2017,10,27,09,00,5.60
2017,10,27,09,01,5.60
2017,10,27,09,02,5.60
2017,10,27,09,03,5.60
2017,10,27,09,04,5.70
2017,10,27,09,05,5.70
2017,10,27,09,06,5.70
2017,10,27,09,07,5.80
2017,10,27,09,08,5.80
2017,10,27,09,09,5.80
2017,10,27,09,10,5.90
2017,10,27,09,11,5.90
2017,10,27,09,12,5.90
2017,10,27,09,13,5.90
2017,10,27,09,14,5.90
2017,10,27,09,15,6.00
2017,10,27,09,16,6.00
2017,10,27,09,17,6.10
2017,10,27,09,18,6.10
2017,10,27,09,19,6.20
2017,10,27,09,20,6.30
2017,10,27,09,21,6.30
2017,10,27,09,22,6.40
2017,10,27,09,23,6.50
2017,10,27,09,24,6.60
2017,10,27,09,25,6.70
2017,10,27,09,26,6.80
2017,10,27,09,27,6.90
2017,10,27,09,28,7.00
2017,10,27,09,29,7.10
2017,10,27,09,30,7.20
2017,10,27,09,31,7.20
2017,10,27,09,32,7.30
2017,10,27,09,33,7.30
2017,10,27,09,34,7.40
2017,10,27,09,35,7.50
2017,10,27,09,36,7.50
2017,10,27,09,37,7.60
2017,10,27,09,38,7.70
2017,10,27,09,39,7.70
2017,10,27,09,40,7.80
2017,10,27,09,41,7.90
2017,10,27,09,42,7.90
2017,10,27,09,43,8.00
2017,10,27,09,44,8.10
2017,10,27,09,45,8.20
2017,10,27,09,46,8.20
2017,10,27,09,47,8.30
2017,10,27,09,48,8.40
2017,10,27,09,49,8.50
2017,10,27,09,50,8.50
2017,10,27,09,51,8.60
2017,10,27,09,52,8.70
2017,10,27,09,53,8.80
2017,10,27,09,54,8.90
2017,10,27,09,55,9.00
2017,10,27,09,56,9.10
2017,10,27,09,57,9.20
2017,10,27,09,58,9.20
2017,10,27,09,59,9.30
2017,10,27,10,00,9.40
2017,10,27,10,01,9.50
2017,10,27,10,02,9.60
2017,10,27,10,03,9.70
2017,10,27,10,04,9.80
2017,10,27,10,05,9.80
2017,10,27,10,06,9.90
2017,10,27,10,07,9.90
2017,10,27,10,08,10.00
2017,10,27,10,09,10.00
2017,10,27,10,10,10.10
2017,10,27,10,11,10.20
2017,10,27,10,12,10.20
2017,10,27,10,13,10.30
2017,10,27,10,14,10.40
2017,10,27,10,15,10.40
2017,10,27,10,16,10.40
2017,10,27,10,17,10.50
2017,10,27,10,18,10.50
2017,10,27,10,19,10.50
2017,10,27,10,20,10.60
2017,10,27,10,21,10.60
2017,10,27,10,22,10.70
2017,10,27,10,23,10.80
2017,10,27,10,24,10.90
2017,10,27,10,25,10.90
2017,10,27,10,26,11.00
2017,10,27,10,27,11.10
2017,10,27,10,28,11.20
2017,10,27,10,29,11.20
2017,10,27,10,30,11.30
2017,10,27,10,31,11.40
2017,10,27,10,32,11.40
2017,10,27,10,33,11.40
2017,10,27,10,34,11.40
2017,10,27,10,35,11.50
2017,10,27,10,36,11.50
2017,10,27,10,37,11.60
2017,10,27,10,38,11.60
2017,10,27,10,39,11.70
2017,10,27,10,40,11.70
2017,10,27,10,41,11.80
2017,10,27,10,42,11.80
2017,10,27,10,43,11.80
2017,10,27,10,44,11.80
2017,10,27,10,45,11.90
2017,10,27,10,46,11.90
2017,10,27,10,47,11.90
2017,10,27,10,48,12.00
2017,10,27,10,49,12.00
2017,10,27,10,50,12.10
2017,10,27,10,51,12.10
2017,10,27,10,52,12.10
2017,10,27,10,53,12.10
2017,10,27,10,54,12.10
2017,10,27,10,55,12.20
2017,10,27,10,56,12.10
2017,10,27,10,57,12.10
2017,10,27,10,58,12.10
2017,10,27,10,59,12.10
2017,10,27,11,00,12.10
2017,10,27,11,01,12.10
2017,10,27,11,02,12.10
2017,10,27,11,03,12.10
2017,10,27,11,04,12.10
2017,10,27,11,05,12.10
2017,10,27,11,06,12.10
2017,10,27,11,07,12.20
2017,10,27,11,08,12.20
2017,10,27,11,09,12.20
2017,10,27,11,10,12.30
2017,10,27,11,11,12.30
2017,10,27,11,12,12.30
2017,10,27,11,13,12.40
2017,10,27,11,14,12.40
2017,10,27,11,15,12.50
2017,10,27,11,16,12.60
2017,10,27,11,17,12.60
2017,10,27,11,18,12.60
2017,10,27,11,19,12.60
2017,10,27,11,20,12.60
2017,10,27,11,21,12.60
2017,10,27,11,22,12.60
2017,10,27,11,23,12.60
2017,10,27,11,24,12.60
2017,10,27,11,25,12.70
2017,10,27,11,26,12.70
2017,10,27,11,27,12.70
2017,10,27,11,28,12.70
2017,10,27,11,29,12.80
2017,10,27,11,30,12.80
2017,10,27,11,31,12.80
2017,10,27,11,32,12.90
2017,10,27,11,33,12.90
2017,10,27,11,34,13.00
2017,10,27,11,35,13.10
2017,10,27,11,36,13.10
2017,10,27,11,37,13.10
2017,10,27,11,38,13.10
2017,10,27,11,39,13.20
2017,10,27,11,40,13.20
2017,10,27,11,41,13.20
2017,10,27,11,42,13.20
2017,10,27,11,43,13.30
2017,10,27,11,44,13.30
2017,10,27,11,45,13.30
2017,10,27,11,46,13.40
2017,10,27,11,47,13.40
2017,10,27,11,48,13.40
2017,10,27,11,49,13.50
2017,10,27,11,50,13.60
2017,10,27,11,51,13.60
2017,10,27,11,52,13.70
2017,10,27,11,53,13.80
2017,10,27,11,54,13.90
2017,10,27,11,55,13.80
2017,10,27,11,56,13.70
2017,10,27,11,57,13.70
2017,10,27,11,58,13.60
2017,10,27,11,59,13.50
2017,10,27,12,00,13.40
2017,10,27,12,01,13.40
2017,10,27,12,02,13.30
2017,10,27,12,03,13.30
2017,10,27,12,04,13.30
2017,10,27,12,05,13.40
2017,10,27,12,06,13.40
2017,10,27,12,07,13.30
2017,10,27,12,08,13.30
2017,10,27,12,09,13.30
2017,10,27,12,10,13.30
2017,10,27,12,11,13.30
2017,10,27,12,12,13.30
2017,10,27,12,13,13.40
2017,10,27,12,14,13.50
2017,10,27,12,15,13.50
2017,10,27,12,16,13.50
2017,10,27,12,17,13.50
2017,10,27,12,18,13.60
2017,10,27,12,19,13.60
2017,10,27,12,20,13.60
2017,10,27,12,21,13.60
2017,10,27,12,22,13.60
2017,10,27,12,23,13.60
2017,10,27,12,24,13.60
2017,10,27,12,25,13.60
2017,10,27,12,26,13.60
2017,10,27,12,27,13.60
2017,10,27,12,28,13.60
2017,10,27,12,29,13.60
2017,10,27,12,30,13.60
2017,10,27,12,31,13.60
2017,10,27,12,32,13.60
2017,10,27,12,33,13.70
2017,10,27,12,34,13.70
2017,10,27,12,35,13.70
2017,10,27,12,36,13.70
2017,10,27,12,37,13.80
2017,10,27,12,38,13.80
2017,10,27,12,39,13.90
2017,10,27,12,40,13.90
2017,10,27,12,41,13.90
2017,10,27,12,42,14.00
2017,10,27,12,43,14.00
2017,10,27,12,44,14.10
2017,10,27,12,45,14.10
2017,10,27,12,46,14.20
2017,10,27,12,47,14.20
2017,10,27,12,48,14.20
2017,10,27,12,49,14.20
2017,10,27,12,50,14.30
2017,10,27,12,51,14.30
2017,10,27,12,52,14.40
2017,10,27,12,53,14.40
2017,10,27,12,54,14.40
2017,10,27,12,55,14.50
2017,10,27,12,56,14.50
2017,10,27,12,57,14.50
2017,10,27,12,58,14.50
2017,10,27,12,59,14.50
2017,10,27,13,00,14.40
2017,10,27,13,01,14.30
2017,10,27,13,02,14.30
2017,10,27,13,03,14.30
2017,10,27,13,04,14.30
2017,10,27,13,05,14.40
2017,10,27,13,06,14.50
2017,10,27,13,07,14.70
2017,10,27,13,08,14.80
2017,10,27,13,09,14.90
2017,10,27,13,10,15.00
2017,10,27,13,11,15.00
2017,10,27,13,12,15.00
2017,10,27,13,13,15.10
2017,10,27,13,14,15.20
2017,10,27,13,15,15.30
2017,10,27,13,16,15.30
2017,10,27,13,17,15.30
2017,10,27,13,18,15.30
2017,10,27,13,19,15.30
2017,10,27,13,20,15.30
2017,10,27,13,21,15.30
2017,10,27,13,22,15.30
2017,10,27,13,23,15.30
2017,10,27,13,24,15.30
2017,10,27,13,25,15.30
2017,10,27,13,26,15.20
2017,10,27,13,27,15.10
2017,10,27,13,28,15.10
2017,10,27,13,29,15.10
2017,10,27,13,30,15.00
2017,10,27,13,31,15.00
2017,10,27,13,32,15.00
2017,10,27,13,33,15.00
2017,10,27,13,34,15.00
2017,10,27,13,35,15.00
2017,10,27,13,36,15.00
2017,10,27,13,37,15.00
2017,10,27,13,38,15.00
2017,10,27,13,39,14.90
2017,10,27,13,40,14.80
2017,10,27,13,41,14.80
2017,10,27,13,42,14.80
2017,10,27,13,43,14.70
2017,10,27,13,44,14.70
2017,10,27,13,45,14.70
2017,10,27,13,46,14.70
2017,10,27,13,47,14.70
2017,10,27,13,48,14.70
2017,10,27,13,49,14.80
2017,10,27,13,50,14.80
2017,10,27,13,51,14.80
2017,10,27,13,52,14.80
2017,10,27,13,53,14.80
2017,10,27,13,54,14.80
2017,10,27,13,55,14.80
2017,10,27,13,56,14.90
2017,10,27,13,57,14.90
2017,10,27,13,58,15.00
2017,10,27,13,59,15.00
2017,10,27,14,00,15.00
2017,10,27,14,01,15.00
2017,10,27,14,02,15.00
2017,10,27,14,03,14.90
2017,10,27,14,04,14.80
2017,10,27,14,05,14.80
2017,10,27,14,06,14.70
2017,10,27,14,07,14.70
2017,10,27,14,08,14.70
2017,10,27,14,09,14.70
2017,10,27,14,10,14.70
2017,10,27,14,11,14.70
2017,10,27,14,12,14.70
2017,10,27,14,13,14.70
2017,10,27,14,14,14.70
2017,10,27,14,15,14.70
2017,10,27,14,16,14.60
2017,10,27,14,17,14.60
2017,10,27,14,18,14.60
2017,10,27,14,19,14.60
2017,10,27,14,20,14.60
2017,10,27,14,21,14.50
2017,10,27,14,22,14.50
2017,10,27,14,23,14.50
2017,10,27,14,24,14.50
2017,10,27,14,25,14.50
2017,10,27,14,26,14.40
2017,10,27,14,27,14.30
2017,10,27,14,28,14.30
2017,10,27,14,29,14.30
2017,10,27,14,30,14.30
2017,10,27,14,31,14.30
2017,10,27,14,32,14.30
2017,10,27,14,33,14.30
2017,10,27,14,34,14.20
2017,10,27,14,35,14.10
2017,10,27,14,36,14.00
2017,10,27,14,37,13.90
2017,10,27,14,38,13.80
2017,10,27,14,39,13.80
2017,10,27,14,40,13.80
2017,10,27,14,41,13.70
2017,10,27,14,42,13.60
2017,10,27,14,43,13.50
2017,10,27,14,44,13.50
2017,10,27,14,45,13.40
2017,10,27,14,46,13.30
2017,10,27,14,47,13.30
2017,10,27,14,48,13.20
2017,10,27,14,49,13.20
2017,10,27,14,50,13.30
2017,10,27,14,51,13.30
2017,10,27,14,52,13.30
2017,10,27,14,53,13.30
2017,10,27,14,54,13.20
2017,10,27,14,55,13.30
2017,10,27,14,56,13.30
2017,10,27,14,57,13.30
2017,10,27,14,58,13.30
2017,10,27,14,59,13.20
2017,10,27,15,00,13.20
2017,10,27,15,01,13.20
2017,10,27,15,02,13.20
2017,10,27,15,03,13.30
2017,10,27,15,04,13.30
2017,10,27,15,05,13.30
2017,10,27,15,06,13.30
2017,10,27,15,07,13.30
2017,10,27,15,08,13.30
2017,10,27,15,09,13.30
2017,10,27,15,10,13.30
2017,10,27,15,11,13.30
2017,10,27,15,12,13.30
2017,10,27,15,13,13.30
2017,10,27,15,14,13.30
2017,10,27,15,15,13.30
2017,10,27,15,16,13.30
2017,10,27,15,17,13.30
2017,10,27,15,18,13.40
2017,10,27,15,19,13.40
2017,10,27,15,20,13.50
2017,10,27,15,21,13.60
2017,10,27,15,22,13.60
2017,10,27,15,23,13.60
2017,10,27,15,24,13.60
2017,10,27,15,25,13.50
2017,10,27,15,26,13.50
2017,10,27,15,27,13.50
2017,10,27,15,28,13.60
2017,10,27,15,29,13.60
2017,10,27,15,30,13.50
2017,10,27,15,31,13.50
2017,10,27,15,32,13.60
2017,10,27,15,33,13.60
2017,10,27,15,34,13.60
2017,10,27,15,35,13.70
2017,10,27,15,36,13.70
2017,10,27,15,37,13.80
2017,10,27,15,38,13.80
2017,10,27,15,39,13.90
2017,10,27,15,40,14.00
2017,10,27,15,41,14.10
2017,10,27,15,42,14.20
2017,10,27,15,43,14.20
2017,10,27,15,44,14.30
2017,10,27,15,45,14.30
2017,10,27,15,46,14.40
2017,10,27,15,47,14.40
2017,10,27,15,48,14.50
2017,10,27,15,49,14.60
2017,10,27,15,50,14.70
2017,10,27,15,51,14.70
2017,10,27,15,52,14.80
2017,10,27,15,53,14.90
2017,10,27,15,54,15.00
2017,10,27,15,55,15.00
2017,10,27,15,56,15.00
2017,10,27,15,57,15.00
2017,10,27,15,58,15.00
2017,10,27,15,59,15.00
2017,10,27,16,00,15.00
2017,10,27,16,01,15.00
2017,10,27,16,02,15.00
2017,10,27,16,03,15.10
2017,10,27,16,04,15.20
2017,10,27,16,05,15.30
2017,10,27,16,06,15.30
2017,10,27,16,07,15.40
2017,10,27,16,08,15.50
2017,10,27,16,09,15.60
2017,10,27,16,10,15.70
2017,10,27,16,11,15.70
2017,10,27,16,12,15.70
2017,10,27,16,13,15.80
2017,10,27,16,14,15.80
2017,10,27,16,15,15.90
2017,10,27,16,16,15.90
2017,10,27,16,17,16.00
2017,10,27,16,18,16.00
2017,10,27,16,19,16.10
2017,10,27,16,20,16.10
2017,10,27,16,21,16.10
2017,10,27,16,22,16.10
2017,10,27,16,23,16.10
2017,10,27,16,24,16.20
2017,10,27,16,25,16.20
2017,10,27,16,26,16.20
2017,10,27,16,27,16.20
2017,10,27,16,28,16.20
2017,10,27,16,29,16.30
2017,10,27,16,30,16.30
2017,10,27,16,31,16.30
2017,10,27,16,32,16.40
2017,10,27,16,33,16.50
2017,10,27,16,34,16.50
2017,10,27,16,35,16.60
2017,10,27,16,36,16.60
2017,10,27,16,37,16.60
2017,10,27,16,38,16.70
2017,10,27,16,39,16.70
2017,10,27,16,40,16.70
2017,10,27,16,41,16.60
2017,10,27,16,42,16.60
2017,10,27,16,43,16.60
2017,10,27,16,44,16.60
2017,10,27,16,45,16.70
2017,10,27,16,46,16.70
2017,10,27,16,47,16.70
2017,10,27,16,48,16.70
2017,10,27,16,49,16.70
2017,10,27,16,50,16.70
2017,10,27,16,51,16.70
2017,10,27,16,52,16.70
2017,10,27,16,53,16.70
2017,10,27,16,54,16.70
2017,10,27,16,55,16.70
2017,10,27,16,56,16.70
2017,10,27,16,57,16.70
2017,10,27,16,58,16.70
2017,10,27,16,59,16.80
2017,10,27,17,00,16.80
2017,10,27,17,01,16.80
2017,10,27,17,02,16.80
2017,10,27,17,03,16.80
2017,10,27,17,04,16.80
2017,10,27,17,05,16.70
2017,10,27,17,06,16.70
2017,10,27,17,07,16.70
2017,10,27,17,08,16.70
2017,10,27,17,09,16.70
2017,10,27,17,10,16.70
2017,10,27,17,11,16.80
2017,10,27,17,12,16.80
2017,10,27,17,13,16.80
2017,10,27,17,14,16.80
2017,10,27,17,15,16.80
2017,10,27,17,16,16.80
2017,10,27,17,17,16.80
2017,10,27,17,18,16.90
2017,10,27,17,19,16.90
2017,10,27,17,20,16.90
2017,10,27,17,21,17.00
2017,10,27,17,22,17.00
2017,10,27,17,23,17.00
2017,10,27,17,24,17.00
2017,10,27,17,25,16.90
2017,10,27,17,26,16.90
2017,10,27,17,27,16.80
2017,10,27,17,28,16.70
2017,10,27,17,29,16.60
2017,10,27,17,30,16.40
2017,10,27,17,31,16.20
2017,10,27,17,32,16.00
2017,10,27,17,33,15.90
2017,10,27,17,34,15.80
2017,10,27,17,35,15.60
2017,10,27,17,36,15.40
2017,10,27,17,37,15.20
2017,10,27,17,38,15.00
2017,10,27,17,39,15.00
2017,10,27,17,40,14.80
2017,10,27,17,41,14.70
2017,10,27,17,42,14.60
2017,10,27,17,43,14.50
2017,10,27,17,44,14.50
2017,10,27,17,45,14.40